www.pogodaiklimat.ru
ПОГОДА в Макминнвилле
Время
и дата
01:35 23.05
01:55 23.05
02:15 23.05
02:35 23.05
02:55 23.05
03:15 23.05
03:35 23.05
03:55 23.05
04:15 23.05
04:35 23.05
04:50 23.05
05:15 23.05
05:35 23.05
05:55 23.05
06:15 23.05
06:35 23.05
06:55 23.05
07:15 23.05
07:35 23.05
07:55 23.05
08:15 23.05
08:35 23.05
08:55 23.05
09:15 23.05
09:35 23.05
09:55 23.05
10:15 23.05
10:35 23.05
10:55 23.05
11:15 23.05
11:35 23.05
11:55 23.05
12:15 23.05
12:35 23.05
12:55 23.05
13:15 23.05
13:35 23.05
13:55 23.05
14:15 23.05
14:35 23.05
14:55 23.05
15:15 23.05
15:35 23.05
15:55 23.05
16:15 23.05
16:35 23.05
16:55 23.05
17:15 23.05
Ветер
(напр.,м/с)
Видим. Явления Облачность Т
(С)
Тd
(С)
f
(%)
Тe
(С)
Тes
(С)
Комфортность P
(гПа)
Po
(гПа)
Тmin
(С)
Tmax
(С)
R
(мм)
R24
(мм)
S
(см)
СВ 1 14 км 10/10 180 м +18.0 +17.0 94 +18 +18 982.0
СВ 1 13 км 10/10 180 м +18.0 +17.0 94 +18 +18 982.0
СВ 1 8 км дымка 10/10 150 м +18.0 +17.0 94 +19 +19 982.0
СВ 1 6 км дымка 10/10 150 м +18.0 +17.0 94 +18 +18 981.7
СВ 1 8 км дымка 10/10 120 м +18.0 +17.0 94 +19 +19 981.7
СВ 1 6 км дымка 10/10 120 м +18.0 +17.0 94 +19 +19 981.7
штиль 0 8 км дымка 10/10 120 м +18.0 +17.0 94 +18 +18 981.7
штиль 0 8 км дымка 10/10 120 м +18.0 +18.0 100 +18 +18 981.7
штиль 0 6 км дымка 10/10 120 м +18.0 +18.0 100 +18 +18 981.7
штиль 0 8 км дымка 10/10 120 м +18.0 +18.0 100 +18 +18 981.7
С 1 8 км дымка 10/10 90 м +18.0 +18.0 100 +19 +19 982.0
СВ 1 11 км 10/10 120 м +18.0 +18.0 100 +18 +18 982.0
СВ 1 11 км 10/10 120 м +18.0 +18.0 100 +18 +18 982.0
СВ 1 6 км дымка 10/10 120 м +18.0 +18.0 100 +18 +18 982.0
СВ 1 5 км дымка 10/10 120 м +18.0 +18.0 100 +18 +18 982.0
СВ 1 8 км дымка 10/10 120 м +18.0 +18.0 100 +18 +18 982.0
СВ 1 11 км 10/10 120 м +18.0 +18.0 100 +18 +18 981.7
СВ 1 10 км дымка 10/10 120 м +18.0 +18.0 100 +18 +18 981.3
В 1 11 км 10/10 120 м +18.0 +18.0 100 +18 +18 981.3
В 1 14 км 10/10 120 м +18.0 +18.0 100 +18 +18 981.0
В 1 14 км 10/10 120 м +19.0 +18.0 94 +21 +21 комфорт 981.0
В 1 14 км 10/10 90 м +19.0 +19.0 100 +21 +21 комфорт 981.0
В 1 16 км 10/10 120 м +19.0 +19.0 100 +21 +21 комфорт 980.7
СВ 1 16 км 10/10 120 м +20.0 +19.0 94 +24 +24 комфорт 980.7
С 1 16 км 10/10 120 м +20.0 +19.0 94 +24 +24 комфорт 980.7
С 2 16 км 10/10 150 м +20.0 +19.0 94 +23 +23 комфорт 980.7
С 3 16 км 10/10 150 м +19.0 +19.0 100 +20 +20 980.7
С 3 13 км 10/10 120 м +18.0 +17.0 94 +17 +17 980.7
С 3 5 км дымка 10/10 90 м +17.0 +17.0 100 +16 +16 981.0
С 2 11 км 10/10 90 м +18.0 +17.0 94 +18 +18 980.7
С 3 16 км 10/10 120 м +18.0 +17.0 94 +17 +17 980.7
С 3 16 км 10/10 120 м +18.0 +17.0 94 +17 +17 980.7
С 2 8 км дымка 10/10 120 м +18.0 +17.0 94 +18 +18 980.4
С 2 16 км 10/10 150 м +18.0 +17.0 94 +18 +18 980.4
С 2
{3}
16 км 10/10 150 м +18.0 +17.0 94 +18 +18 980.4
С 2 16 км 10/10 180 м +19.0 +17.0 88 +20 +20 980.4
С 2 16 км 10/10 180 м +18.0 +17.0 94 +18 +18 980.7
С 2 16 км 10/10 180 м +18.0 +17.0 94 +18 +18 980.4
С 2 16 км 10/10 180 м +18.0 +16.0 88 +18 +18 980.7
С 1
{3}
16 км 10/10 150 м +17.0 +16.0 94 +17 +17 980.4
С 2 16 км 10/10 150 м +17.0 +16.0 94 +17 +17 980.7
С 1 14 км 10/10 150 м +17.0 +16.0 94 +17 +17 981.0
С 2 16 км 10/10 180 м +17.0 +16.0 94 +17 +17 981.0
С 1 16 км 10/10 210 м +17.0 +15.0 88 +17 +17 981.3
С 2 14 км 10/10 210 м +17.0 +15.0 88 +17 +17 981.3
С 1 16 км 10/10 180 м +16.0 +15.0 94 +15 +15 981.7
С 2 14 км 10/10 180 м +16.0 +15.0 94 +15 +15 981.7
С 1 16 км 10/10 180 м +16.0 +15.0 94 +15 +15 981.7
Местоположение метеостанции Warren County Memorial Airport: широта 35.6991 долгота -85.8402 высота над уровнем моря 315 м.
В архиве по умолчанию представлена погода в Макминнвилле за последние 1-2 суток. Обновление информации о фактической погоде в базе происходит ежечасно! Архивные данные за месяц целиком и за предыдущие месяцы Вы можете получить, выбрав интересующий диапазон дат из раскрывающегося списка и нажав кнопку "Ввод!".
Внимание! Архив погоды МЕТАР в базе сайта по станциям, не включенным в климатический монитор, хранится не более 60 дней. Нет смысла пытаться выбрать более раннюю дату.
*Определитесь, кто Вы:
Внимание! Время в таблицах - местное (без учета летнего времени). Для получения всемирного времени необходимо вычесть поправку, которая равна -6 ч.
Смотрите также архив погоды в соседних городах и на ближайших метеорологических станциях:
Партнеры нашего сайта:      
Пояснения к столбцам:
  • Ветер - указаны скорость ветра в м/с - средняя за 10 мин, порывы в срок и между сроками (в фигурных скобках) и направление, откуда дует ветер: С - северный,
  • СВ - северо-восточный, В - восточный, ЮВ - юго-восточный, Ю - южный, ЮЗ - юго-западный, З - западный, СЗ - северо-западный.
  • Видимость - горизонтальная дальность видимости в метрах или километрах. При видимости от 1 до 10 км при отсутствии осадков обычно наблюдается дымка, при ухудшении видимости до 1 км и менее - туман. В сухую погоду видимость может ухудшаться дымом, пылью или мглою.
  • Явления - указаны атмосферные явления, наблюдавшиеся в срок или в последний час перед сроком; фигурными скобками обозначены явления, наблюдавшиеся между сроками (за 1-3 часа до срока); квадратными скобками обозначены град или гололедные отложения с указанием их диаметра в мм.
  • Облачность - указаны через наклонную черту общая и нижняя облачность в баллах и высота нижней границы облаков в метрах; квадратными скобками обозначены формы облаков: Ci - перистые, Cs - перисто-слоистые, Cc - перисто-кучевые, Ac - высококучевые, As - высокослоистые, Sc - слоисто-кучевые, Ns - слоисто-дождевые, Cu - кучевые, Cb - кучево-дождевые. Подробнее классификацию облаков см. в Атласе облаков (PDF).
  • T - Температура воздуха - температура, измеренная на высоте 2 м над землей.
  • Td - Температура точки росы - температура, при понижении до которой содержащийся в воздухе водяной пар достигнет насыщения.
  • f - Относительная влажность воздуха - влажноcть воздуха, измеренная на высоте 2 м над землей.
  • Te - Эффективная температура - температура, которую ощущает одетый по сезону человек в тени. Характеристика душности погоды. При расчете учитывается влияние влажности воздуха и скорости ветра на теплоощущения человека.
  • Tes - Эффективная температура на солнце - температура, которую ощущает человек, с поправкой на солнечный нагрев. Характеристика знойности погоды. Зависит от высоты солнца над горизонтом, облачности и скорости ветра. Ночью, в пасмурную погоду, а также при ветре 12 м/с и более поправка равна нулю.
  • P - Атмосферное давление - приведенное к уровню моря атмосферное давление.
  • Po - Атмосферное давление - измеренное на уровне метеостанции атмосферное давление.
  • Tmin - Минимальная температура - минимум температуры воздуха на высоте 2 м над землей.
  • Tmax - Максимальная температура - максимум температуры воздуха на высоте 2 м над землей.
  • R - Количество осадков - Количество выпавших осадков за период времени, мм. При наведении курсора мыши на число - период времени, за который выпало указанное количество осадков.
  • R24 - Количество осадков - Количество выпавших осадков за 24 часа, мм.
  • S - Снежный покров - Высота снежного покрова, см. При наведении курсора мыши на число - состояние снежного покрова и степень покрытия местности в баллах.